Location: Trebic
(49.2170°N, 15.8830°E)
Time: 09:55:39
(UTC+02:00)

Transit 4A - Pass Details

Date: 29 July 2019
Orbit: 863 x 981 km, 66.8° (Epoch: 24 August)

Event Time Altitude Azimuth Distance (km) Brightness Sun altitude
Exits shadow 02:40:32 - 260° (W) 2,777 10.1 -18.6°
Reaches altitude 10° 02:40:41 10° 261° (W) 2,731 10.0 -18.5°
Maximum altitude 02:46:24 33° 324° (NW) 1,590 9.4 -18.2°
Drops below altitude 10° 02:52:08 10° 27° (NNE) 2,733 11.7 -17.7°
Sets 02:55:00 0° 37° (NE) 3,672 12.7 -17.5°
